| time (UTC) | temp C | wind direction | speed KPH | gust KPH | rain 1hr cm | rain 24hr cm | rain mn cm | humidity % | barometer mb |
| 20260506111627 | 10 | 183 | 4.8 | 9.7 | 0.00 | 0.00 | 0.00 | 92 | 1018.7 |
| 20260506110906 | 10 | 191 | 4.8 | 8.0 | 0.00 | 0.00 | 0.00 | 92 | 1018.6 |
| 20260506110406 | 10 | 176 | 3.2 | 6.4 | 0.00 | 0.00 | 0.00 | 92 | 1018.4 |
| 20260506110126 | 10 | 172 | 3.2 | 4.8 | 0.00 | 0.00 | 0.00 | 92 | 1018.5 |
| 20260506105354 | 10 | 171 | 3.2 | 4.8 | 0.00 | 0.00 | 0.00 | 91 | 1018.3 |
| 20260506104843 | 10 | 171 | 3.2 | 9.7 | 0.00 | 0.00 | 0.00 | 91 | 1018.2 |
| 20260506104341 | 10 | 177 | 4.8 | 9.7 | 0.00 | 0.00 | 0.00 | 91 | 1018.2 |
| 20260506103841 | 10 | 184 | 4.8 | 6.4 | 0.00 | 0.00 | 0.00 | 91 | 1018.2 |
| 20260506103341 | 10 | 167 | 3.2 | 6.4 | 0.00 | 0.00 | 0.00 | 91 | 1018.1 |
| 20260506102839 | 10 | 177 | 1.6 | 4.8 | 0.00 | 0.00 | 0.00 | 90 | 1018.1 |
| 20260506102335 | 10 | 177 | 1.6 | 4.8 | 0.00 | 0.00 | 0.00 | 91 | 1018.0 |
| 20260506101837 | 10 | 175 | 1.6 | 4.8 | 0.00 | 0.00 | 0.00 | 91 | 1017.9 |
| 20260506101331 | 10 | 185 | 3.2 | 6.4 | 0.00 | 0.00 | 0.00 | 91 | 1017.9 |
| 20260506100827 | 10 | 185 | 4.8 | 9.7 | 0.00 | 0.00 | 0.00 | 91 | 1017.9 |
| 20260506100323 | 10 | 173 | 4.8 | 9.7 | 0.00 | 0.00 | 0.00 | 91 | 1017.8 |
| 20260506095822 | 10 | 193 | 4.8 | 9.7 | 0.00 | 0.00 | 0.00 | 91 | 1017.9 |
| 20260506095316 | 10 | 187 | 4.8 | 9.7 | 0.00 | 0.00 | 0.00 | 90 | 1017.9 |
| 20260506094818 | 11 | 175 | 6.4 | 11.3 | 0.00 | 0.00 | 0.00 | 90 | 1017.9 |
| 20260506094535 | 11 | 210 | 4.8 | 12.9 | 0.00 | 0.00 | 0.00 | 90 | 1017.8 |
| 20260506093808 | 11 | 171 | 4.8 | 12.9 | 0.00 | 0.00 | 0.00 | 90 | 1017.8 |
| 20260506093307 | 11 | 191 | 6.4 | 11.3 | 0.00 | 0.00 | 0.00 | 90 | 1017.8 |
| 20260506093029 | 11 | 184 | 6.4 | 11.3 | 0.00 | 0.00 | 0.00 | 90 | 1017.8 |
| 20260506092301 | 11 | 181 | 6.4 | 11.3 | 0.00 | 0.00 | 0.00 | 90 | 1017.7 |
| 20260506091802 | 11 | 175 | 4.8 | 9.7 | 0.00 | 0.00 | 0.00 | 90 | 1017.8 |
| 20260506091300 | 11 | 203 | 3.2 | 9.7 | 0.00 | 0.00 | 0.00 | 90 | 1017.8 |
| 20260506090802 | 11 | 217 | 3.2 | 6.4 | 0.00 | 0.00 | 0.00 | 89 | 1017.8 |
| 20260506090259 | 11 | 206 | 3.2 | 6.4 | 0.00 | 0.00 | 0.00 | 90 | 1017.8 |
| 20260506085800 | 11 | 180 | 1.6 | 6.4 | 0.00 | 0.00 | 0.00 | 89 | 1017.7 |
| 20260506085301 | 11 | 203 | 1.6 | 4.8 | 0.00 | 0.00 | 0.00 | 89 | 1017.7 |
| 20260506085025 | 11 | 193 | 3.2 | 6.4 | 0.00 | 0.00 | 0.00 | 89 | 1017.6 |
| 20260506084252 | 11 | 173 | 3.2 | 6.4 | 0.00 | 0.00 | 0.00 | 89 | 1017.5 |
| 20260506083749 | 11 | 177 | 3.2 | 4.8 | 0.00 | 0.00 | 0.00 | 89 | 1017.5 |
| 20260506083251 | 11 | 193 | 3.2 | 6.4 | 0.00 | 0.00 | 0.00 | 89 | 1017.5 |
| 20260506082744 | 11 | 175 | 3.2 | 6.4 | 0.00 | 0.00 | 0.00 | 89 | 1017.5 |
| 20260506082241 | 11 | 175 | 3.2 | 4.8 | 0.00 | 0.00 | 0.00 | 90 | 1017.5 |
| 20260506081737 | 12 | 198 | 3.2 | 4.8 | 0.00 | 0.00 | 0.00 | 89 | 1017.4 |
| 20260506081240 | 12 | 195 | 3.2 | 4.8 | 0.00 | 0.00 | 0.00 | 89 | 1017.5 |
| 20260506080733 | 12 | 167 | 3.2 | 6.4 | 0.00 | 0.00 | 0.00 | 88 | 1017.4 |
| 20260506080231 | 12 | 166 | 4.8 | 9.7 | 0.00 | 0.00 | 0.00 | 88 | 1017.5 |
| 20260506073147 | 13 | 226 | 1.6 | 4.8 | 0.00 | 0.00 | 0.00 | 85 | 1017.5 |
| 20260506072647 | 13 | 226 | 3.2 | 4.8 | 0.00 | 0.00 | 0.00 | 85 | 1017.5 |
| 20260506072143 | 13 | 248 | 3.2 | 8.0 | 0.00 | 0.00 | 0.00 | 85 | 1017.4 |
| 20260506071644 | 13 | 230 | 3.2 | 8.0 | 0.00 | 0.00 | 0.00 | 85 | 1017.4 |
| 20260506071132 | 13 | 265 | 3.2 | 8.0 | 0.00 | 0.00 | 0.00 | 85 | 1017.3 |
| 20260506070619 | 14 | 241 | 1.6 | 8.0 | 0.00 | 0.00 | 0.00 | 86 | 1017.2 |
| 20260506070331 | 14 | 141 | 1.6 | 4.8 | 0.00 | 0.00 | 0.00 | 87 | 1017.2 |
| 20260506062021 | 14 | 85 | 0.0 | 0.0 | 0.00 | 0.00 | 0.00 | 88 | 1017.0 |
| 20260506061519 | 13 | 85 | 0.0 | 3.2 | 0.00 | 0.00 | 0.00 | 87 | 1016.9 |
| 20260506061019 | 14 | 85 | 0.0 | 3.2 | 0.00 | 0.00 | 0.00 | 87 | 1016.9 |
| 20260506060516 | 14 | 23 | 0.0 | 0.0 | 0.00 | 0.00 | 0.00 | 87 | 1016.7 |
| 20260506060230 | 13 | 23 | 0.0 | 0.0 | 0.00 | 0.00 | 0.00 | 87 | 1016.8 |
| 20260506051408 | 13 | 23 | 1.6 | 3.2 | 0.00 | 0.00 | 0.00 | 86 | 1016.3 |
| 20260506050858 | 13 | 23 | 1.6 | 3.2 | 0.00 | 0.00 | 0.00 | 85 | 1016.3 |
| 20260506050358 | 13 | 23 | 1.6 | 4.8 | 0.00 | 0.00 | 0.00 | 85 | 1016.2 |
| 20260506044824 | 14 | 314 | 1.6 | 4.8 | 0.00 | 0.00 | 0.00 | 84 | 1016.0 |
| 20260506044321 | 14 | 327 | 1.6 | 4.8 | 0.00 | 0.00 | 0.00 | 83 | 1015.9 |
| 20260506043821 | 14 | 292 | 1.6 | 4.8 | 0.00 | 0.00 | 0.00 | 84 | 1015.8 |
| 20260506043544 | 14 | 294 | 1.6 | 4.8 | 0.00 | 0.00 | 0.00 | 83 | 1015.9 |
| 20260506042821 | 14 | 294 | 1.6 | 4.8 | 0.00 | 0.00 | 0.00 | 83 | 1015.7 |
| 20260506042310 | 15 | 294 | 1.6 | 4.8 | 0.00 | 0.00 | 0.00 | 83 | 1015.8 |
| 20260506041755 | 15 | 294 | 1.6 | 4.8 | 0.00 | 0.00 | 0.00 | 83 | 1015.7 |
| 20260506041256 | 15 | 294 | 1.6 | 3.2 | 0.00 | 0.00 | 0.00 | 83 | 1015.8 |
| 20260506040752 | 15 | 294 | 1.6 | 4.8 | 0.00 | 0.00 | 0.00 | 83 | 1015.7 |
| 20260506040507 | 15 | 294 | 1.6 | 4.8 | 0.00 | 0.00 | 0.00 | 82 | 1015.6 |
| 20260506035746 | 15 | 258 | 1.6 | 4.8 | 0.00 | 0.00 | 0.00 | 82 | 1015.6 |
| 20260506035502 | 15 | 260 | 3.2 | 4.8 | 0.00 | 0.00 | 0.00 | 82 | 1015.5 |
| 20260506034745 | 15 | 250 | 1.6 | 4.8 | 0.00 | 0.00 | 0.00 | 83 | 1015.6 |
| 20260506034726 | 15 | 239 | 1.6 | 4.8 | 0.00 | 0.00 | 0.00 | 81 | 1015.4 |
| 20260506034003 | 15 | 240 | 1.6 | 4.8 | 0.00 | 0.00 | 0.00 | 79 | 1015.4 |
| 20260506033236 | 16 | 330 | 1.6 | 4.8 | 0.00 | 0.00 | 0.00 | 78 | 1015.3 |
| 20260506032727 | 16 | 330 | 3.2 | 4.8 | 0.00 | 0.00 | 0.00 | 77 | 1015.3 |
| 20260506032221 | 16 | 337 | 3.2 | 6.4 | 0.00 | 0.00 | 0.00 | 77 | 1015.1 |
| 20260506031719 | 16 | 322 | 3.2 | 6.4 | 0.00 | 0.00 | 0.00 | 77 | 1015.2 |
| 20260506031219 | 16 | 353 | 1.6 | 6.4 | 0.00 | 0.00 | 0.00 | 76 | 1015.2 |
| 20260506030715 | 17 | 15 | 3.2 | 6.4 | 0.00 | 0.00 | 0.00 | 76 | 1015.1 |
| 20260506030435 | 17 | 15 | 3.2 | 6.4 | 0.00 | 0.00 | 0.00 | 75 | 1015.2 |
| 20260506025708 | 17 | 4 | 4.8 | 9.7 | 0.00 | 0.00 | 0.00 | 75 | 1015.1 |
| 20260506025210 | 17 | 346 | 4.8 | 9.7 | 0.00 | 0.00 | 0.00 | 75 | 1015.0 |
| 20260506024709 | 17 | 11 | 4.8 | 11.3 | 0.00 | 0.00 | 0.00 | 75 | 1015.0 |
| 20260506024427 | 17 | 11 | 4.8 | 11.3 | 0.00 | 0.00 | 0.00 | 74 | 1015.0 |
| 20260506023711 | 17 | 22 | 4.8 | 11.3 | 0.00 | 0.00 | 0.00 | 74 | 1015.0 |
| 20260506023210 | 18 | 355 | 4.8 | 11.3 | 0.00 | 0.00 | 0.00 | 74 | 1014.9 |
| 20260506022707 | 18 | 342 | 6.4 | 12.9 | 0.00 | 0.00 | 0.00 | 73 | 1014.7 |
| 20260506022208 | 18 | 7 | 8.0 | 14.5 | 0.00 | 0.00 | 0.00 | 73 | 1014.8 |
| 20260506021933 | 18 | 17 | 6.4 | 14.5 | 0.00 | 0.00 | 0.00 | 73 | 1014.7 |
| 20260506021428 | 18 | 36 | 6.4 | 11.3 | 0.00 | 0.00 | 0.00 | 72 | 1014.7 |
| 20260506020700 | 18 | 15 | 6.4 | 11.3 | 0.00 | 0.00 | 0.00 | 72 | 1014.8 |
| 20260506020158 | 18 | 356 | 4.8 | 11.3 | 0.00 | 0.00 | 0.00 | 71 | 1014.8 |
| 20260506015658 | 18 | 50 | 6.4 | 12.9 | 0.00 | 0.00 | 0.00 | 71 | 1014.7 |
| 20260506015158 | 18 | 16 | 6.4 | 12.9 | 0.00 | 0.00 | 0.00 | 71 | 1014.8 |
| 20260506014700 | 18 | 17 | 6.4 | 12.9 | 0.00 | 0.00 | 0.00 | 70 | 1014.6 |
| 20260506014159 | 18 | 329 | 4.8 | 11.3 | 0.00 | 0.00 | 0.00 | 70 | 1014.6 |
| 20260506013657 | 18 | 36 | 4.8 | 12.9 | 0.00 | 0.00 | 0.00 | 70 | 1014.6 |
| 20260506013155 | 19 | 54 | 6.4 | 16.1 | 0.00 | 0.00 | 0.00 | 69 | 1014.6 |
| 20260506012654 | 19 | 35 | 8.0 | 16.1 | 0.00 | 0.00 | 0.00 | 69 | 1014.6 |
| 20260506012150 | 19 | 352 | 8.0 | 14.5 | 0.00 | 0.00 | 0.00 | 69 | 1014.6 |
| 20260506011650 | 19 | 44 | 8.0 | 16.1 | 0.00 | 0.00 | 0.00 | 69 | 1014.6 |
| 20260506011410 | 19 | 13 | 8.0 | 16.1 | 0.00 | 0.00 | 0.00 | 69 | 1014.6 |
| 20260506010636 | 19 | 5 | 6.4 | 12.9 | 0.00 | 0.00 | 0.00 | 69 | 1014.6 |
| 20260506010125 | 19 | 275 | 9.7 | 17.7 | 0.00 | 0.00 | 0.00 | 68 | 1014.6 |
| 20260506005610 | 19 | 10 | 8.0 | 17.7 | 0.00 | 0.00 | 0.00 | 67 | 1014.6 |
| 20260506005104 | 20 | 358 | 4.8 | 14.5 | 0.00 | 0.00 | 0.00 | 69 | 1014.6 |
| 20260506005058 | 20 | 359 | 4.8 | 12.9 | 0.00 | 0.00 | 0.00 | 65 | 1014.6 |
| 20260506004102 | 20 | 306 | 4.8 | 11.3 | 0.00 | 0.00 | 0.00 | 67 | 1014.7 |
| 20260506003558 | 20 | 28 | 8.0 | 14.5 | 0.00 | 0.00 | 0.00 | 66 | 1014.7 |
| 20260506003054 | 20 | 321 | 6.4 | 14.5 | 0.00 | 0.00 | 0.00 | 67 | 1014.8 |
| 20260506002557 | 19 | 15 | 4.8 | 12.9 | 0.00 | 0.00 | 0.00 | 67 | 1014.8 |
| 20260506002054 | 20 | 356 | 6.4 | 17.7 | 0.00 | 0.00 | 0.00 | 67 | 1014.7 |
| 20260506001818 | 20 | 33 | 6.4 | 17.7 | 0.00 | 0.00 | 0.00 | 67 | 1014.7 |
| 20260506001053 | 20 | 0 | 6.4 | 17.7 | 0.00 | 0.00 | 0.00 | 66 | 1014.7 |
| 20260506000552 | 20 | 358 | 6.4 | 14.5 | 0.00 | 0.00 | 0.00 | 67 | 1014.8 |
| 20260506000051 | 19 | 347 | 4.8 | 14.5 | 0.00 | 0.00 | 0.00 | 66 | 1014.7 |
| 20260505235550 | 20 | 22 | 3.2 | 12.9 | 0.00 | 0.00 | 0.00 | 66 | 1014.7 |
| 20260505235308 | 20 | 335 | 3.2 | 8.0 | 0.00 | 0.00 | 0.00 | 65 | 1014.8 |
| 20260505234550 | 20 | 0 | 6.4 | 14.5 | 0.00 | 0.00 | 0.00 | 65 | 1014.8 |
| 20260505234048 | 20 | 6 | 8.0 | 16.1 | 0.00 | 0.00 | 0.00 | 65 | 1014.9 |
| 20260505233544 | 20 | 17 | 9.7 | 16.1 | 0.00 | 0.00 | 0.00 | 65 | 1014.8 |
| 20260505233043 | 20 | 356 | 8.0 | 16.1 | 0.00 | 0.00 | 0.00 | 64 | 1014.9 |
| 20260505232541 | 20 | 354 | 4.8 | 11.3 | 0.00 | 0.00 | 0.00 | 64 | 1014.9 |
| 20260505232305 | 20 | 303 | 3.2 | 8.0 | 0.00 | 0.00 | 0.00 | 64 | 1015.0 |
| 20260505231543 | 20 | 344 | 4.8 | 14.5 | 0.00 | 0.00 | 0.00 | 65 | 1015.0 |
| 20260505231043 | 20 | 334 | 4.8 | 14.5 | 0.00 | 0.00 | 0.00 | 65 | 1015.0 |
| 20260505230539 | 20 | 45 | 4.8 | 11.3 | 0.00 | 0.00 | 0.00 | 65 | 1015.1 |
| 20260505230038 | 20 | 314 | 4.8 | 11.3 | 0.00 | 0.00 | 0.00 | 65 | 1015.1 |
| 20260505225537 | 19 | 307 | 4.8 | 11.3 | 0.00 | 0.00 | 0.00 | 67 | 1015.1 |
| 20260505225314 | 19 | 1 | 3.2 | 9.7 | 0.00 | 0.00 | 0.00 | 68 | 1015.1 |
| 20260505224539 | 18 | 206 | 3.2 | 8.0 | 0.00 | 0.00 | 0.00 | 68 | 1015.3 |
| 20260505224039 | 18 | 58 | 6.4 | 14.5 | 0.00 | 0.00 | 0.00 | 69 | 1015.3 |
| 20260505223536 | 19 | 34 | 6.4 | 16.1 | 0.00 | 0.00 | 0.00 | 67 | 1015.4 |
| 20260505223035 | 19 | 58 | 6.4 | 16.1 | 0.00 | 0.00 | 0.00 | 66 | 1015.3 |
| 20260505222534 | 19 | 331 | 8.0 | 19.3 | 0.00 | 0.00 | 0.00 | 71 | 1015.5 |
| 20260505222213 | 17 | 10 | 8.0 | 14.5 | 0.00 | 0.00 | 0.00 | 69 | 1015.6 |
| 20260505222108 | 18 | 298 | 8.0 | 19.3 | 0.00 | 0.00 | 0.00 | 71 | 1015.6 |
| 20260505221619 | 18 | 338 | 6.4 | 14.5 | 0.00 | 0.00 | 0.00 | 72 | 1015.7 |
| 20260505220533 | 18 | 6 | 6.4 | 14.5 | 0.00 | 0.00 | 0.00 | 70 | 1015.7 |
| 20260505220034 | 18 | 1 | 6.4 | 16.1 | 0.00 | 0.00 | 0.00 | 68 | 1015.7 |
| 20260505215535 | 18 | 13 | 4.8 | 16.1 | 0.00 | 0.00 | 0.00 | 70 | 1015.7 |
| 20260505215032 | 18 | 348 | 3.2 | 12.9 | 0.00 | 0.00 | 0.00 | 71 | 1015.7 |
| 20260505214534 | 18 | 17 | 3.2 | 12.9 | 0.00 | 0.00 | 0.00 | 68 | 1015.7 |
| 20260505214030 | 18 | 165 | 4.8 | 12.9 | 0.00 | 0.00 | 0.00 | 68 | 1015.7 |
| 20260505213536 | 17 | 358 | 3.2 | 11.3 | 0.00 | 0.00 | 0.00 | 72 | 1015.7 |
| 20260505212941 | 17 | 0 | 3.2 | 8.0 | 0.00 | 0.00 | 0.00 | 70 | 1015.8 |
| 20260505212440 | 17 | 239 | 4.8 | 12.9 | 0.00 | 0.00 | 0.00 | 70 | 1015.7 |
| 20260505211941 | 17 | 354 | 4.8 | 12.9 | 0.00 | 0.00 | 0.00 | 70 | 1015.7 |
| 20260505211438 | 17 | 7 | 4.8 | 11.3 | 0.00 | 0.00 | 0.00 | 72 | 1015.8 |
| 20260505210938 | 17 | 25 | 6.4 | 12.9 | 0.00 | 0.00 | 0.00 | 70 | 1015.8 |
| 20260505210440 | 17 | 2 | 6.4 | 12.9 | 0.00 | 0.00 | 0.00 | 73 | 1015.8 |
| 20260505205937 | 17 | 312 | 4.8 | 11.3 | 0.00 | 0.00 | 0.00 | 71 | 1015.9 |
| 20260505205438 | 17 | 6 | 4.8 | 11.3 | 0.00 | 0.00 | 0.00 | 72 | 1016.0 |
| 20260505204938 | 17 | 48 | 3.2 | 6.4 | 0.00 | 0.00 | 0.00 | 70 | 1016.0 |
| 20260505204432 | 16 | 339 | 3.2 | 6.4 | 0.00 | 0.00 | 0.00 | 71 | 1016.0 |
| 20260505203931 | 16 | 358 | 1.6 | 6.4 | 0.00 | 0.00 | 0.00 | 73 | 1016.0 |
| 20260505203431 | 16 | 327 | 1.6 | 4.8 | 0.00 | 0.00 | 0.00 | 72 | 1016.2 |
| 20260505202923 | 16 | 37 | 3.2 | 9.7 | 0.00 | 0.00 | 0.00 | 72 | 1016.2 |
| 20260505202421 | 16 | 23 | 4.8 | 11.3 | 0.00 | 0.00 | 0.00 | 72 | 1016.1 |
| 20260505201922 | 16 | 23 | 4.8 | 11.3 | 0.00 | 0.00 | 0.00 | 73 | 1016.0 |
| 20260505201421 | 16 | 10 | 3.2 | 9.7 | 0.00 | 0.00 | 0.00 | 73 | 1016.1 |
| 20260505200920 | 16 | 347 | 3.2 | 8.0 | 0.00 | 0.00 | 0.00 | 72 | 1016.1 |
| 20260505200417 | 16 | 175 | 4.8 | 8.0 | 0.00 | 0.00 | 0.00 | 73 | 1016.1 |
| 20260505195917 | 16 | 265 | 4.8 | 9.7 | 0.00 | 0.00 | 0.00 | 74 | 1016.1 |
| 20260505195638 | 16 | 239 | 3.2 | 9.7 | 0.00 | 0.00 | 0.00 | 75 | 1016.1 |
| 20260505194919 | 15 | 94 | 3.2 | 9.7 | 0.00 | 0.00 | 0.00 | 75 | 1016.1 |
| 20260505194404 | 15 | 122 | 1.6 | 9.7 | 0.00 | 0.00 | 0.00 | 74 | 1016.1 |
| 20260505193901 | 15 | 135 | 1.6 | 6.4 | 0.00 | 0.00 | 0.00 | 74 | 1016.2 |
| 20260505193842 | 15 | 138 | 1.6 | 6.4 | 0.00 | 0.00 | 0.00 | 75 | 1016.1 |
| 20260505192902 | 15 | 192 | 1.6 | 9.7 | 0.00 | 0.00 | 0.00 | 75 | 1016.1 |
| 20260505192357 | 15 | 192 | 3.2 | 9.7 | 0.00 | 0.00 | 0.00 | 77 | 1016.1 |
| 20260505191847 | 15 | 257 | 1.6 | 9.7 | 0.00 | 0.00 | 0.00 | 76 | 1016.1 |
| 20260505191342 | 15 | 160 | 1.6 | 4.8 | 0.00 | 0.00 | 0.00 | 76 | 1016.1 |
| 20260505190842 | 15 | 219 | 1.6 | 6.4 | 0.00 | 0.00 | 0.00 | 79 | 1016.0 |
| 20260505190346 | 15 | 219 | 3.2 | 6.4 | 0.00 | 0.00 | 0.00 | 77 | 1016.0 |
| 20260505185842 | 15 | 157 | 3.2 | 6.4 | 0.00 | 0.00 | 0.00 | 76 | 1016.1 |
| 20260505185546 | 15 | 200 | 4.8 | 11.3 | 0.00 | 0.00 | 0.00 | 78 | 1016.0 |
| 20260505185436 | 15 | 206 | 4.8 | 11.3 | 0.00 | 0.00 | 0.00 | 78 | 1016.0 |
| 20260505184339 | 15 | 169 | 3.2 | 6.4 | 0.00 | 0.00 | 0.00 | 77 | 1016.0 |
| 20260505183840 | 15 | 231 | 3.2 | 6.4 | 0.00 | 0.00 | 0.00 | 78 | 1016.0 |
| 20260505183559 | 15 | 231 | 1.6 | 6.4 | 0.00 | 0.00 | 0.00 | 75 | 1015.9 |
| 20260505182831 | 15 | 74 | 0.0 | 3.2 | 0.00 | 0.00 | 0.00 | 78 | 1016.0 |
| 20260505182558 | 14 | 65 | 1.6 | 4.8 | 0.00 | 0.00 | 0.00 | 77 | 1015.9 |
| 20260505181825 | 14 | 164 | 3.2 | 8.0 | 0.00 | 0.00 | 0.00 | 77 | 1015.9 |
| 20260505181322 | 14 | 223 | 4.8 | 9.7 | 0.00 | 0.00 | 0.00 | 76 | 1015.8 |
| 20260505181040 | 14 | 152 | 3.2 | 9.7 | 0.00 | 0.00 | 0.00 | 77 | 1015.8 |
| 20260505180803 | 14 | 206 | 3.2 | 6.4 | 0.00 | 0.00 | 0.00 | 77 | 1015.8 |
| 20260505175823 | 15 | 235 | 1.6 | 6.4 | 0.00 | 0.00 | 0.00 | 77 | 1015.8 |
| 20260505175545 | 14 | 260 | 1.6 | 6.4 | 0.00 | 0.00 | 0.00 | 77 | 1015.8 |
| 20260505174812 | 14 | 218 | 3.2 | 8.0 | 0.00 | 0.00 | 0.00 | 78 | 1015.8 |
| 20260505174315 | 14 | 223 | 3.2 | 9.7 | 0.00 | 0.00 | 0.00 | 76 | 1015.7 |
| 20260505173812 | 14 | 214 | 3.2 | 9.7 | 0.00 | 0.00 | 0.00 | 78 | 1015.8 |
| 20260505173310 | 13 | 137 | 3.2 | 6.4 | 0.00 | 0.00 | 0.00 | 78 | 1015.8 |
| 20260505172813 | 13 | 173 | 3.2 | 6.4 | 0.00 | 0.00 | 0.00 | 78 | 1015.8 |
| 20260505172308 | 14 | 198 | 1.6 | 6.4 | 0.00 | 0.00 | 0.00 | 77 | 1015.7 |
| 20260505171805 | 13 | 179 | 3.2 | 6.4 | 0.00 | 0.00 | 0.00 | 78 | 1015.6 |
| 20260505171303 | 13 | 147 | 4.8 | 12.9 | 0.00 | 0.00 | 0.00 | 78 | 1015.7 |
| 20260505170801 | 13 | 152 | 6.4 | 12.9 | 0.00 | 0.00 | 0.00 | 77 | 1015.7 |
| 20260505170305 | 14 | 172 | 3.2 | 12.9 | 0.00 | 0.00 | 0.00 | 78 | 1015.6 |
| 20260505170025 | 13 | 225 | 3.2 | 6.4 | 0.00 | 0.00 | 0.00 | 79 | 1015.7 |
| 20260505165301 | 13 | 178 | 3.2 | 6.4 | 0.00 | 0.00 | 0.00 | 79 | 1015.6 |
| 20260505164757 | 13 | 237 | 3.2 | 8.0 | 0.00 | 0.00 | 0.00 | 78 | 1015.6 |
| 20260505164524 | 13 | 229 | 3.2 | 8.0 | 0.00 | 0.00 | 0.00 | 79 | 1015.7 |
| 20260505163757 | 13 | 265 | 3.2 | 8.0 | 0.00 | 0.00 | 0.00 | 80 | 1015.7 |
| 20260505163519 | 13 | 182 | 1.6 | 6.4 | 0.00 | 0.00 | 0.00 | 79 | 1015.7 |
| 20260505162749 | 13 | 249 | 3.2 | 6.4 | 0.00 | 0.00 | 0.00 | 80 | 1015.7 |
| 20260505162249 | 13 | 237 | 3.2 | 6.4 | 0.00 | 0.00 | 0.00 | 80 | 1015.6 |
| 20260505161750 | 13 | 212 | 3.2 | 6.4 | 0.00 | 0.00 | 0.00 | 80 | 1015.7 |
| 20260505161253 | 13 | 247 | 1.6 | 4.8 | 0.00 | 0.00 | 0.00 | 79 | 1015.7 |
| 20260505160741 | 13 | 238 | 3.2 | 8.0 | 0.00 | 0.00 | 0.00 | 80 | 1015.7 |
| 20260505160502 | 13 | 241 | 4.8 | 8.0 | 0.00 | 0.00 | 0.00 | 80 | 1015.7 |
| 20260505152722 | 13 | 208 | 4.8 | 8.0 | 0.00 | 0.00 | 0.00 | 82 | 1015.8 |
| 20260505152216 | 13 | 228 | 4.8 | 8.0 | 0.00 | 0.00 | 0.00 | 82 | 1015.6 |
| 20260505151715 | 13 | 221 | 4.8 | 9.7 | 0.00 | 0.00 | 0.00 | 83 | 1015.7 |
| 20260505151450 | 12 | 187 | 4.8 | 9.7 | 0.00 | 0.00 | 0.00 | 83 | 1015.6 |
| 20260505150715 | 12 | 181 | 4.8 | 8.0 | 0.00 | 0.00 | 0.00 | 82 | 1015.6 |
| 20260505150433 | 12 | 204 | 4.8 | 8.0 | 0.00 | 0.00 | 0.00 | 82 | 1015.5 |
| 20260505140205 | 12 | 175 | 1.6 | 4.8 | 0.00 | 0.00 | 0.00 | 84 | 1015.3 |
| 20260505125026 | 12 | 258 | 3.2 | 4.8 | 0.00 | 0.00 | 0.00 | 85 | 1015.0 |
| 20260505124520 | 12 | 258 | 4.8 | 8.0 | 0.00 | 0.00 | 0.00 | 85 | 1014.9 |
| 20260505124017 | 12 | 254 | 4.8 | 9.7 | 0.00 | 0.00 | 0.00 | 85 | 1014.8 |
| 20260505123515 | 12 | 247 | 4.8 | 9.7 | 0.00 | 0.00 | 0.00 | 85 | 1014.9 |
| 20260505123015 | 11 | 248 | 4.8 | 9.7 | 0.00 | 0.00 | 0.00 | 85 | 1014.7 |
| 20260505122512 | 12 | 257 | 4.8 | 9.7 | 0.00 | 0.00 | 0.00 | 86 | 1014.7 |
| 20260505122012 | 12 | 293 | 3.2 | 8.0 | 0.00 | 0.00 | 0.00 | 86 | 1014.7 |
| 20260505121737 | 12 | 238 | 3.2 | 6.4 | 0.00 | 0.00 | 0.00 | 86 | 1014.7 |
| 20260505121012 | 12 | 238 | 3.2 | 6.4 | 0.00 | 0.00 | 0.00 | 86 | 1014.7 |
| 20260505120721 | 12 | 238 | 3.2 | 8.0 | 0.00 | 0.00 | 0.00 | 86 | 1014.7 |
| 20260505115950 | 12 | 232 | 4.8 | 8.0 | 0.00 | 0.00 | 0.00 | 86 | 1014.6 |
| 20260505115439 | 12 | 288 | 4.8 | 9.7 | 0.00 | 0.00 | 0.00 | 86 | 1014.7 |
| 20260505114938 | 11 | 288 | 4.8 | 9.7 | 0.00 | 0.00 | 0.00 | 87 | 1014.7 |
| 20260505114434 | 11 | 265 | 3.2 | 9.7 | 0.00 | 0.00 | 0.00 | 88 | 1014.7 |
| 20260505114154 | 11 | 244 | 1.6 | 4.8 | 0.00 | 0.00 | 0.00 | 90 | 1014.7 |
| 20260505113427 | 11 | 244 | 1.6 | 4.8 | 0.00 | 0.00 | 0.00 | 90 | 1014.8 |
| 20260505112927 | 12 | 244 | 3.2 | 8.0 | 0.00 | 0.00 | 0.00 | 88 | 1014.8 |
| 20260505112422 | 12 | 248 | 3.2 | 8.0 | 0.00 | 0.00 | 0.00 | 85 | 1014.8 |
| 20260505111917 | 12 | 230 | 1.6 | 4.8 | 0.00 | 0.00 | 0.00 | 85 | 1014.7 |